[[{"header":{"parameterUnit":"m.s-1","parameterCategory":1,"la1":30.2991,"la2":30.254,"lo1":-89.0895,"lo2":-89.0444,"dy":0.0017,"dx":0.0017,"nx":28,"ny":28,"refTime":"2025-05-24T03:00:00:Z","depth":0,"parameterNumber":2,"parameterNumberName":"U-component_of_WINDS"},"data":[0,0,0,0,0,0,0,0,0,0,0,0,0,0,0,0,0,0,0,0,0,0,0,0,0,0,0,0,0,0,0,0,0,0,0,0,0,0,0,0,0,0,0,0,0,0,0,0,0,0,0,0,0,0,0,0,0,0,0.4234,0.4235,0,0.433,0.4331,0.4332,0.4362,0.4361,0.4361,0.436,0.4457,0.446,0.4463,0,0,0,0,0,0,0,0,0,0,0,0,0,0.4075,0.4078,0.4234,0.4235,0.4237,0.433,0.4331,0.4332,0.4362,0.4361,0.4361,0.436,0.4456,0.4459,0.4463,0,0,0,0,0,0,0,0,0,0,0,0,0,0.4155,0.4079,0.4234,0.4263,0.4266,0.4329,0.4331,0.4333,0.4362,0.4361,0.4361,0.436,0.4455,0.4459,0.4463,0.4504,0,0,0.4477,0.4479,0,0,0,0,0,0,0,0,0.415,0.416,0.4257,0.4261,0.4265,0.4333,0.431,0.439,0.4362,0.4326,0.436,0.436,0.4416,0.4424,0.4443,0.4509,0.4513,0.4477,0.448,0.4482,0.4483,0,0,0,0,0,0,0,0.4145,0.4156,0.4272,0.4259,0.4263,0.427,0.428,0.4325,0.4373,0.4329,0.4331,0.4342,0.4418,0.4439,0.4446,0.4515,0.4477,0.4481,0.4484,0.4486,0.4617,0.4618,0,0,0,0,0,0,0.4134,0.4152,0.4269,0.4275,0.4205,0.4273,0.4285,0.4312,0.4373,0.4382,0.4343,0.4343,0.4431,0.444,0.4449,0.45,0.4482,0.4486,0.4489,0.4617,0.4618,0.4618,0,0,0,0,0,0,0.4131,0.4145,0.4265,0.4214,0.423,0.4277,0.4307,0.4314,0.4335,0.4383,0.4392,0.4355,0.4431,0.4443,0.449,0.4504,0.4488,0.4492,0.4616,0.4617,0.4618,0.4604,0,0,0,0,0,0,0.4126,0.4143,0.416,0.4214,0.4232,0.4305,0.4308,0.4317,0.4343,0.4344,0.4397,0.4406,0.4432,0.4483,0.4495,0.451,0.4496,0.4615,0.4616,0.4618,0.4603,0.4604,0.4605,0,0,0,0,0,0.412,0.4152,0.4161,0.4175,0.4255,0.4306,0.4317,0.4346,0.4344,0.436,0.4391,0.4404,0.4501,0.4488,0.4501,0.4518,0.4614,0.4616,0.4617,0.4603,0.4604,0.4605,0,0,0,0,0,0,0.4098,0.416,0.417,0.422,0.4258,0.4311,0.4333,0.4347,0.4386,0.4386,0.442,0.4432,0.4477,0.4502,0.4487,0.456,0.4558,0.4562,0.4542,0.4544,0.4545,0.4538,0.45,0,0,0,0,0,0.4099,0.4137,0.4188,0.4228,0.4246,0.4286,0.431,0.4329,0.4369,0.4385,0.442,0.4458,0.4497,0.4522,0.456,0.4607,0.4618,0.4625,0.4626,0.4626,0.463,0.4655,0.4658,0.4624,0.4624,0.4624,0,0,0.4102,0.414,0.4162,0.4224,0.4256,0.4293,0.43,0.4339,0.4366,0.4391,0.4438,0.4465,0.4509,0.4556,0.4578,0.4578,0.4641,0.4629,0.4629,0.4632,0.4657,0.466,0.4663,0.4626,0.4625,0.4625,0,0,0.4125,0.4158,0.4194,0.4225,0.4273,0.4299,0.4307,0.4359,0.4377,0.4425,0.4444,0.4476,0.4543,0.4574,0.4598,0.4631,0.4643,0.4642,0.4648,0.4672,0.4675,0.4677,0.4688,0.4692,0.4646,0.4646,0.4646,0,0.4122,0.418,0.4211,0.4249,0.4275,0.4299,0.4335,0.4364,0.4421,0.4438,0.4438,0.4521,0.4552,0.4606,0.4614,0.4633,0.4643,0.4637,0.4672,0.4675,0.4678,0.4688,0.4693,0.4645,0.4645,0.4645,0.4645,0,0.4173,0.4212,0.4236,0.429,0.4319,0.4356,0.4392,0.4417,0.4434,0.446,0.4507,0.4546,0.4592,0.4606,0.4623,0.4662,0.466,0.4665,0.4664,0.468,0.4691,0.4695,0.4644,0.4645,0.4645,0.4645,0,0,0.4186,0.4257,0.4265,0.4289,0.4342,0.4373,0.441,0.4456,0.4476,0.4514,0.4546,0.4601,0.4605,0.4633,0.4653,0.4674,0.4697,0.4677,0.4678,0.4678,0.4741,0.4736,0.4741,0.4705,0.4706,0.4707,0.4737,0,0.4216,0.4284,0.4312,0.4367,0.4403,0.4426,0.4458,0.4493,0.4518,0.4552,0.4579,0.4617,0.4621,0.4637,0.4659,0.4689,0.4709,0.4687,0.4734,0.4735,0.4722,0.4747,0.4743,0.4769,0.4741,0.4742,0.4743,0,0.426,0.4298,0.4357,0.4404,0.4421,0.4449,0.4492,0.4524,0.4564,0.4581,0.4611,0.4629,0.4668,0.4663,0.4717,0.4701,0.4721,0.4738,0.474,0.4746,0.474,0.4752,0.4779,0.4783,0.475,0.4749,0.4749,0,0.4263,0.4329,0.4372,0.4393,0.445,0.4469,0.4493,0.4533,0.4558,0.4595,0.4611,0.4653,0.4675,0.4706,0.4735,0.4729,0.4785,0.4783,0.4799,0.4798,0.481,0.4809,0.484,0.4823,0.4823,0.4823,0.4823,0,0.4293,0.4327,0.4374,0.4401,0.4439,0.4471,0.4508,0.4534,0.4569,0.46,0.4622,0.465,0.4687,0.472,0.4742,0.4782,0.4792,0.4806,0.4812,0.4804,0.4802,0.4818,0.4817,0.4824,0.4824,0.4824,0.4824,0,0.4303,0.4335,0.4384,0.4433,0.4447,0.4473,0.4515,0.4541,0.4566,0.4605,0.4616,0.4656,0.4696,0.4728,0.4779,0.4795,0.4836,0.4843,0.4823,0.4826,0.484,0.4838,0.4882,0.4889,0.4868,0.4868,0.4868,0,0.432,0.4347,0.4399,0.4422,0.4446,0.4482,0.4508,0.4539,0.4565,0.4612,0.4632,0.4673,0.4708,0.477,0.4803,0.4842,0.485,0.4862,0.4856,0.4847,0.4849,0.4847,0.4849,0.4863,0.4863,0.4863,0.4863,0,0.4346,0.4361,0.4397,0.4439,0.4468,0.4503,0.4537,0.4554,0.4592,0.4619,0.466,0.4687,0.4739,0.478,0.4822,0.4847,0.4861,0.4865,0.487,0.4863,0.485,0.4856,0.4824,0.4864,0.4863,0.4863,0.4863,0.4863,0.436,0.4384,0.4425,0.4464,0.4493,0.4525,0.4551,0.458,0.4615,0.466,0.4677,0.4718,0.4756,0.4815,0.484,0.4872,0.4873,0.4881,0.4884,0.4885,0.4884,0.4845,0.488,0.488,0.488,0.488,0.488,0,0.4387,0.4414,0.4449,0.4497,0.4528,0.4538,0.4577,0.4601,0.4638,0.4673,0.4706,0.4752,0.4791,0.4827,0.4867,0.4886,0.4894,0.4896,0.4894,0.49,0.4881,0.4872,0.4889,0.4889,0.4889,0.4889,0.4889,0.4889,0.4404,0.4446,0.4466,0.4522,0.4548,0.459,0.4611,0.4639,0.4667,0.4718,0.475,0.4773,0.4808,0.4851,0.4886,0.4896,0.4909,0.491,0.492,0.4902,0.4901,0.49,0.4891,0.4912,0.4912,0.4937,0.4937,0.4937]},{"header":{"parameterUnit":"m.s-1","parameterCategory":1,"la1":30.2991,"la2":30.254,"lo1":-89.0895,"lo2":-89.0444,"dy":0.0017,"dx":0.0017,"nx":28,"ny":28,"refTime":"2025-05-24T03:00:00:Z","depth":0,"parameterNumber":3,"parameterNumberName":"V-component_of_WINDS"},"data":[0,0,0,0,0,0,0,0,0,0,0,0,0,0,0,0,0,0,0,0,0,0,0,0,0,0,0,0,0,0,0,0,0,0,0,0,0,0,0,0,0,0,0,0,0,0,0,0,0,0,0,0,0,0,0,0,0,0,5.3327,5.3327,0,5.3343,5.3344,5.3344,5.3241,5.3238,5.3235,5.3232,5.3246,5.3249,5.3252,0,0,0,0,0,0,0,0,0,0,0,0,0,5.3202,5.3205,5.3327,5.3327,5.3327,5.3343,5.3344,5.3344,5.3241,5.3238,5.3234,5.3231,5.3245,5.3248,5.3252,0,0,0,0,0,0,0,0,0,0,0,0,0,5.3241,5.3206,5.3327,5.3278,5.3274,5.3343,5.3344,5.3344,5.3242,5.3237,5.3233,5.3229,5.3244,5.3248,5.3253,5.3369,0,0,5.3267,5.3269,0,0,0,0,0,0,0,0,5.3239,5.3246,5.3285,5.3281,5.3277,5.3285,5.3305,5.3352,5.3243,5.3254,5.3232,5.3227,5.3262,5.3265,5.3278,5.3369,5.337,5.3267,5.327,5.3272,5.3273,0,0,0,0,0,0,0,5.3237,5.3245,5.3333,5.3286,5.3281,5.3254,5.3255,5.3313,5.3282,5.3253,5.3245,5.3249,5.3259,5.3274,5.3277,5.337,5.3267,5.3271,5.3274,5.3276,5.3557,5.3562,0,0,0,0,0,0,5.3241,5.3243,5.3333,5.3334,5.3247,5.326,5.3261,5.3287,5.3281,5.3276,5.3252,5.3244,5.3268,5.3272,5.3277,5.3413,5.3272,5.3276,5.3279,5.3553,5.3559,5.3564,0,0,0,0,0,0,5.3239,5.325,5.3332,5.3286,5.3295,5.3267,5.3297,5.329,5.3304,5.3281,5.3275,5.3273,5.3264,5.3271,5.3347,5.3412,5.3278,5.3283,5.3547,5.3555,5.3561,5.3685,0,0,0,0,0,0,5.3236,5.325,5.3295,5.3288,5.3298,5.3403,5.3301,5.3293,5.3313,5.3302,5.3299,5.3294,5.3262,5.3341,5.3352,5.3416,5.3286,5.3541,5.3551,5.3559,5.3675,5.3696,5.3713,0,0,0,0,0,5.3231,5.3328,5.3297,5.3309,5.3353,5.3407,5.3412,5.3373,5.3318,5.3362,5.3348,5.3294,5.3403,5.3349,5.3361,5.3427,5.3537,5.3548,5.3558,5.3667,5.3692,5.3713,0,0,0,0,0,0,5.3342,5.3326,5.3292,5.339,5.3401,5.3389,5.3444,5.3401,5.3427,5.3415,5.3365,5.3365,5.345,5.3446,5.3386,5.3539,5.346,5.3474,5.3539,5.3562,5.3581,5.358,5.329,0,0,0,0,0,5.3378,5.3424,5.3407,5.3495,5.3502,5.3473,5.3494,5.3464,5.3472,5.3476,5.3467,5.3476,5.3512,5.3537,5.3569,5.3674,5.3672,5.3725,5.3744,5.376,5.3772,5.3827,5.3851,5.3598,5.3598,5.3598,0,0,5.3452,5.3449,5.3481,5.3517,5.3522,5.3569,5.3477,5.3531,5.3565,5.3483,5.3555,5.3549,5.3556,5.3647,5.3687,5.3647,5.3842,5.3774,5.3786,5.379,5.3841,5.3865,5.3886,5.3606,5.3604,5.3603,0,0,5.3611,5.3615,5.3688,5.3695,5.3703,5.3683,5.3701,5.3696,5.3689,5.376,5.37,5.3739,5.3803,5.381,5.3822,5.3985,5.3937,5.3997,5.4096,5.415,5.417,5.4187,5.4245,5.4267,5.4009,5.4009,5.4009,0,5.3702,5.3773,5.3731,5.379,5.3807,5.3736,5.3809,5.3817,5.3836,5.3849,5.3803,5.3882,5.3881,5.3973,5.4013,5.4025,5.4043,5.3997,5.4171,5.4188,5.4203,5.4258,5.428,5.4016,5.4016,5.4015,5.4014,0,5.3884,5.3934,5.3992,5.4013,5.4036,5.4102,5.4069,5.4098,5.4065,5.4049,5.4122,5.4119,5.415,5.4169,5.4137,5.4257,5.4231,5.418,5.4099,5.4236,5.4286,5.4307,5.4027,5.4024,5.4022,5.402,0,0,5.4114,5.4111,5.4133,5.4141,5.4145,5.4182,5.4244,5.4275,5.4301,5.4315,5.4366,5.4421,5.4373,5.4387,5.4355,5.4403,5.4532,5.4345,5.4344,5.438,5.4663,5.4702,5.4727,5.45,5.4504,5.4507,5.4662,0,5.427,5.4377,5.4341,5.4449,5.4494,5.4427,5.4481,5.4489,5.4476,5.4511,5.4495,5.4536,5.4469,5.4477,5.4522,5.4507,5.4588,5.4495,5.4545,5.4548,5.4546,5.4754,5.4795,5.4943,5.4682,5.4685,5.4688,0,5.4467,5.4491,5.4604,5.4601,5.4618,5.4667,5.4692,5.4727,5.4734,5.4721,5.4737,5.4695,5.4754,5.4674,5.4755,5.4693,5.4711,5.4707,5.4712,5.4715,5.4626,5.4763,5.4989,5.5011,5.4718,5.4716,5.4714,0,5.4623,5.4683,5.4759,5.4768,5.4766,5.4802,5.4803,5.4805,5.4826,5.4847,5.486,5.4888,5.4903,5.4925,5.4892,5.4836,5.4978,5.4894,5.4968,5.4969,5.5001,5.4999,5.5233,5.5013,5.5012,5.5012,5.5011,0,5.4801,5.4873,5.4829,5.4876,5.4954,5.4911,5.499,5.4982,5.4986,5.5029,5.4972,5.5013,5.4966,5.5003,5.4977,5.5048,5.5055,5.5046,5.5038,5.5051,5.5052,5.5062,5.5051,5.5018,5.5016,5.5015,5.5014,0,5.4989,5.4963,5.5041,5.5033,5.5032,5.509,5.5082,5.5124,5.5107,5.5162,5.5173,5.5145,5.5186,5.5154,5.5194,5.5176,5.527,5.5248,5.5268,5.5262,5.5337,5.5331,5.5586,5.5617,5.5377,5.5379,5.5381,0,5.5105,5.5159,5.5157,5.5182,5.5187,5.5228,5.5249,5.5208,5.5232,5.5245,5.5285,5.5321,5.5348,5.5415,5.5398,5.5428,5.5406,5.5493,5.541,5.5421,5.5407,5.5405,5.541,5.551,5.5513,5.5515,5.5517,0,5.5313,5.5297,5.533,5.536,5.5387,5.5407,5.5423,5.5446,5.5405,5.5435,5.5476,5.5497,5.5537,5.5573,5.5597,5.5596,5.555,5.5544,5.5562,5.5576,5.5586,5.5582,5.5314,5.5538,5.5536,5.5534,5.5533,5.5532,5.5468,5.5513,5.5519,5.5558,5.5565,5.5581,5.5621,5.5609,5.5643,5.5673,5.5647,5.5696,5.5701,5.5729,5.5733,5.5771,5.5735,5.5762,5.5768,5.5776,5.5787,5.558,5.5775,5.5774,5.5774,5.5773,5.5773,0,5.5674,5.5674,5.571,5.5734,5.5765,5.5719,5.5734,5.5763,5.5807,5.5816,5.5844,5.5891,5.5926,5.5912,5.5942,5.5975,5.5954,5.5984,5.5981,5.5982,5.5817,5.5798,5.6,5.6,5.6,5.6,5.6,5.6,5.5784,5.5858,5.5843,5.5919,5.5918,5.5967,5.598,5.5994,5.6001,5.6057,5.6086,5.6076,5.6076,5.6106,5.6136,5.613,5.6144,5.6182,5.6169,5.6016,5.5993,5.5972,5.5954,5.6185,5.6185,5.6331,5.6332,5.6333]}]]